Flag for Germany Weather past 2 weeks in Hamm, North Rhine-Westphalia, Germany

Now
61 °F

Partly sunny.


Feels Like: 61 °F
Forecast: 45 / 68 °F
Wind: 12 mph from North

Location: Dortmund / Wickede

Current Time: May 23, 2015 at 4:25:20 PM

Latest Report: May 23, 2015 at 3:50 PM


Visibility: N/A

Pressure: 30.12 "Hg

Humidity: 63%

Dew point: 48 °F

Location of HammLocation

Historic Weather in Hamm — Graph

°F

Hamm temperature yesterday

Maximum temperature yesterday: 68 °F (at 3:50 PM)
Minimum temperature yesterday: 43 °F (at 5:20 AM)
Average temperature yesterday: 60 °F

Past Weeks' High & Low Weather Summary

 TemperatureHumidityPressure
High77 °F (May 11, 3:50 PM)93% (May 16, 6:20 AM)30.33 "Hg (May 16, 6:20 AM)
Low39 °F (May 14, 5:20 AM)29% (May 11, 2:50 PM)29.62 "Hg (May 18, 7:20 PM)
Average57 °F57%30.06 "Hg
* Reported May 8 3:20 PM — May 23 3:20 PM, Hamm, Weather by CustomWeather, © 2015

Note: Actual official high and low records may vary slightly from our data, if they occured in-between our weather recording intervals... More about our weather records

Advertising

Hamm weather history for previous 24 hours

 ConditionsComfort  
Time TempWeatherWind HumidityBarometerVisibility
3:20 PM
Sat, May 23
61 °FPartly sunny.12 mph63%30.12 "HgN/A
2:50 PM64 °FPassing clouds.6 mph46%30.12 "HgN/A
2:20 PM64 °FPassing clouds.10 mph46%30.12 "HgN/A
1:50 PM66 °FSunny.12 mph43%30.12 "Hg10 mi
1:20 PM66 °FPassing clouds.8 mph46%30.12 "HgN/A
12:50 PM68 °FPassing clouds.8 mph33%30.12 "HgN/A
12:20 PM66 °FSunny.6 mph40%30.15 "Hg10 mi
11:50 AM64 °FSunny.6 mph49%30.15 "Hg10 mi
11:20 AM63 °FPassing clouds.7 mph52%30.15 "HgN/A
10:50 AM63 °FPassing clouds.6 mph52%30.15 "HgN/A
10:20 AM59 °FPassing clouds.6 mph55%30.15 "HgN/A
9:50 AM59 °FSunny.7 mph55%30.15 "Hg10 mi
9:20 AM59 °FPassing clouds.6 mph59%30.15 "HgN/A
8:50 AM59 °FSunny.7 mph59%30.15 "Hg10 mi
8:20 AM57 °FSunny.3 mph72%30.15 "Hg10 mi
7:50 AM55 °FClear.6 mph77%30.15 "Hg6 mi
7:20 AM55 °FClear.5 mph77%30.15 "Hg6 mi
6:50 AM54 °FClear.5 mph77%30.15 "Hg6 mi
6:20 AM54 °FClear.5 mph77%30.15 "Hg10 mi
5:50 AM54 °FClear.6 mph77%30.15 "Hg10 mi
5:20 AM54 °FClear.6 mph77%30.15 "Hg10 mi
10:50 PM
Fri, May 22
55 °FClear.2 mph67%30.18 "Hg10 mi
10:20 PM61 °FSunny.No wind45%30.18 "Hg10 mi
9:50 PM57 °FSunny.No wind55%30.18 "Hg10 mi
9:20 PM59 °FSunny.No wind55%30.18 "Hg10 mi
8:50 PM59 °FSunny.2 mph55%30.18 "Hg10 mi
8:20 PM63 °FPassing clouds.5 mph45%30.18 "HgN/A
7:50 PM66 °FPassing clouds.9 mph37%30.18 "HgN/A
7:20 PM66 °FSunny.9 mph35%30.18 "Hg10 mi
6:50 PM66 °FSunny.6 mph40%30.18 "Hg10 mi
6:20 PM66 °FSunny.7 mph35%30.18 "Hg10 mi
5:50 PM66 °FPassing clouds.5 mph40%30.21 "HgN/A
5:20 PM64 °FSunny.3 mph40%30.21 "Hg10 mi
4:50 PM66 °FPassing clouds.5 mph35%30.21 "HgN/A
4:20 PM66 °FPassing clouds.5 mph32%30.21 "HgN/A
Weather by CustomWeather, © 2015

See weather overviewHow to use our weather pages